894  
ASUS42 KILM 240513  
RWRILM  
RWRILM  
REGIONAL HOURLY WEATHER ROUNDUP  
NATIONAL WEATHER SERVICE WILMINGTON NC  
100 AM EDT TUE OCT 24 2017  
 
NOTE: "FAIR" INDICATES FEW OR NO CLOUDS BELOW 12,000 FEET WITH NO  
SIGNIFICANT WEATHER AND/OR S TO VISIBILITY
.  
   
..............WFO WILMINGTON COUNTY WARNING AREA............
 
 
   
.....COASTAL NC AND SC COUNTIES...
 
 
 
CITY SKY/WX TMP DP RH WIND PRES REMARKS
 
WILMINGTON HVY RAIN 73 71 93 SW15G31 29.87R FOG  
N MYRTLE BEACH CLOUDY 70 66 87 VRB5 29.87S  
MYRTLE BEACH CLOUDY 69 66 90 NW5 29.88F  
   
.....INLAND NC AND SC COUNTIES....
 
 
 
CITY SKY/WX TMP DP RH WIND PRES REMARKS
 
LUMBERTON CLEAR 60 59 96 SE3 29.86F  
ELIZABETHTOWN NOT AVBL  
WHITEVILLE MOCLDY 68 64 87 CALM 29.88R  
FLORENCE CLEAR 63 63 100 SW6 29.86F  
DARLINGTON CLEAR 63 62 97 SW6 29.86F  
KINGSTREE FAIR 63 63 100 CALM 29.87F  
HARTSVILLE FAIR 61 59 94 SW3 29.85F  
BENNETTSVILLE FAIR 63 63 100 CALM 29.85S  
CONWAY FAIR 64 64 100 CALM 29.87F  
GEORGETOWN CLOUDY 68 68 100 W5 29.88F  
MARION FAIR 63 61 94 S3 29.86F  
   
...................REST OF NORTH CAROLINA...................
 
 
   
........EASTERN NC......
 
 
 
CITY SKY/WX TMP DP RH WIND PRES REMARKS
 
CAPE HATTERAS CLOUDY 77 70 79 S30G39 29.94F  
JACKSONVILLE LGT RAIN 73 72 96 SE15G24 29.84F  
MOREHEAD CITY LGT RAIN 76 71 85 S17G26 29.93R  
KENANSVILLE HVY RAIN 72 68 88 SW6 29.87R FOG  
NEW BERN RAIN 73 73 100 S21G33 29.86S FOG  
ELIZABETH CITY CLOUDY 74 70 87 S13G20 29.87F  
   
........CENTRAL NC......
 
 
 
CITY SKY/WX TMP DP RH WIND PRES REMARKS
 
RALEIGH DURHAM LGT RAIN 62 62 100 S9 29.83R  
ROCKY MOUNT LGT RAIN 64 64 100 SW8G20 29.84R  
ROANOKE RAPIDS NOT AVBL  
FAYETTEVILLE CLEAR 61 61 100 CALM 29.86S  
HOFFMAN CLEAR 61 60 96 SW7 29.84S  
   
........WESTERN NC......
 
 
 
CITY SKY/WX TMP DP RH WIND PRES REMARKS
 
CHARLOTTE PTCLDY 59 57 93 SW6 29.84S  
GREENSBORO CLOUDY 60 60 100 W7 29.81F  
HICKORY NOT AVBL  
BOONE NOT AVBL  
ASHEVILLE NOT AVBL  
   
....................REST OF SOUTH CAROLINA..................
 
 
   
........EASTERN SC......
 
 
 
CITY SKY/WX TMP DP RH WIND PRES REMARKS
 
CHARLESTON PTCLDY 68 65 90 W5 29.88S  
BEAUFORT MCAS PTCLDY 69 68 96 MISG 29.89S  
HILTON HEAD CLEAR 70 66 88 VRB5 29.89F  
   
........CENTRAL SC......
 
 
 
CITY SKY/WX TMP DP RH WIND PRES REMARKS
 
COLUMBIA CLEAR 62 61 96 W8 29.87S  
ORANGEBURG CLEAR 64 61 90 W5 29.88F  
SUMTER SHAW CLEAR 64 62 94 W10 29.84F  
   
........WESTERN SC......
 
 
 
CITY SKY/WX TMP DP RH WIND PRES REMARKS
 
GREENVILLE NOT AVBL  
ROCK HILL CLEAR 57 57 100 SW8 29.85S  
ANDERSON CLEAR 58 52 80 W7 29.89S  
CLEMSON NOT AVBL  
GREENWOOD CLEAR 57 53 86 W8 29.90S  
 
   
..................COASTAL AND OFFSHORE REPORTS...............
 
 
   
...............LOCAL PIERS AND NC RESERVE.............
 
 
 
STATION/POSITION TIME SKY/WX TEMP WIND PRES VSBY
 
AIR SEA DIR/SP/G  
(UTC) (F) (DEG/KT/KT) (MB) (MI)  
JOHNY MRCER PIER 0436 74 75 160/ 27/ 31 1011.0R  
NC RESRV MASNBRO 0345 74 190/ 6 1011.0  
OCEAN CREST PIER NOT AVBL  
SPRINGMAID PIER 0436 1010.8F  
 
   
...............COASTAL AND OFFSHORE BUOYS.............
 
 
 
STATION/POSITION TIME SKY/WX TEMP WIND PRES VSBY
 
AIR SEA DIR/SP/G  
(UTC) (F) (DEG/KT/KT) (MB) (MI)  
DIMNDSHOAL 41025 0450 79 80 170/ 27/ 35 1013.4F  
WVE H/P(F/S)= 10/ 8  
 
CAPE LOOKOUT 0500 76 170/ 21/ 24 1013.3R  
ONSLOW BAY 41036 NOT AVBL  
ONSLOW BAY 41064 0408 79 180/ 23/ 29 1012.7F  
ONSLOW BAY 41159 NOT AVBL  
MASNBO INL 41110 0459 74 N/A  
WVE H/P(F/S)= 8/ 8  
 
WILM HARBR 41108 0500 74 N/A  
WVE H/P(F/S)= 8/ 8  
 
27SE WRITB 41037 0408 78 76 170/ 19/ 27 1012.1F  
FRYING PAN 41013 0500 80 78 180/ 25/ 33 1011.1  
SUNST NRSH 41024 0408 71 74 250/ 19/ 31 1011.1R  
CAPRS NRSH 41029 0408 69 74 280/ 12/ 17 1010.9R  
EDISTO 41004 0450 77 80 190/ 23/ 33 1010.5F  
WVE H/P(F/S)= 12/ 8  
 
   
.........OFFSHORE BUOYS BEYOND 100 NM OFFSHORE........
 
   
....IN A TRIANGLE---HAT TO BERMUDA TO BAHAMAS TO HAT..
 
 
 
 
STATION/POSITION TIME SKY/WX TEMP WIND PRES VSBY
 
AIR SEA DIR/SP/G  
(UTC) (F) (DEG/KT/KT) (MB) (MI)  
150E HAT 41001 NOT AVBL  
W BERMUDA 41048 0500 78 79 120/ 19/ 23 1019.2  
ATLANTIC S 41049 0450 79 80 80/ 17/ 21 1018.4F  
WVE H/P(F/S)= 6/ 7 SWL H/P/D(F/S/D)= 2/ 60/ 8  
 
E BAHAMAS 41046 0450 80 82 100/ 12/ 16 1016.3F  
WVE H/P(F/S)= 5/ 7 SWL H/P/D(F/S/D)= 3/100/ 7  
 
NE BAHAMAS 41047 0450 77 82 110/ 6/ 8 1017.5F  
WVE H/P(F/S)= 4/ 6 SWL H/P/D(F/S/D)= 5/ 90/ 6  
 
120E CANVRL41010 NOT AVBL  
 
END  
 
 
CLICK HERE TO GO TO PREVIOUS BULLETINS.

The Nexlab NC Page
The Nexlab SC Page Main Text Page